GSAT0221 (GALILEO 25)

Last updated on Thu Nov 21 2024 00:02:30 GMT+0000 (Coordinated Universal Time)

1 43564U 18060A 24324.79812407 -.00000095 00000+0 00000+0 0 9993 2 43564 57.2959 357.2777 0006056 272.4283 87.5530 1.70475956 39378
UTC large
Height (km)
Speed (km/s)
/
Latitude / Longitude
Inclination (degrees)
Orbital Period (minutes)
Azimuth
Elevation
Range (km)
Doppler Factor

Next 0 passes for location: London (51.5072 / 0.1276)

Sorry there are no passes over London.